User: anonymous   Login
Location: Unspecified
(35.7250°N, 0.0000°E)
Time: 14:09:05
(UTC+00:00)
Language:

PRISM - Orbit

View from above orbital plane
View from above orbital plane
View from above satellite
View from above satellite

Ground track
Ground track

The orbit data is extracted from the following two-line orbital elements,

1 33493U 09002B   19229.09711818 -.00000248  00000-0 -16082-4 0  9998
2 33493  98.1205 152.3046 0015234 352.3887   7.7099 14.96701900574039
Epoch (UTC): 17 August 2019 02:19:51
Eccentricity: 0.0015234
inclination: 98.1205°
perigee height: 566 km
apogee height: 587 km
right ascension of ascending node: 152.3046°
argument of perigee: 352.3887°
revolutions per day: 14.96701900
mean anomaly at epoch: 7.7099°
orbit number at epoch: 57403

The dashed part of the orbit path shows where the satellite is in the earth's shadow,  

DLR